EW3670 Weather Reports


Display with metric or nautical units.
time (UTC)temp
F
wind
direction
speed
MPH
gust
MPH
rain 1hr
in
rain 24hr
in
rain mn
in
humidity
%
barometer
mb
20260508200100 59 298 2.0 7.0 0.00 0.00 0.00 32 1007.2
20260508195555 59 0 3.0 9.0 0.00 0.00 0.00 31 1007.3
20260508195051 58 355 1.0 11.0 0.00 0.00 0.00 33 1007.3
20260508194553 59 225 2.0 11.0 0.00 0.00 0.00 31 1007.3
20260508194051 58 5 3.0 11.0 0.00 0.00 0.00 32 1007.3
20260508193556 58 328 2.0 9.0 0.00 0.00 0.00 33 1007.4
20260508193100 57 331 2.0 11.0 0.00 0.00 0.00 33 1007.6
20260508192552 57 296 2.0 11.0 0.00 0.00 0.00 32 1007.5
20260508192054 58 263 4.0 10.0 0.00 0.00 0.00 32 1007.6
20260508191555 58 312 1.0 10.0 0.00 0.00 0.00 32 1007.6
20260508191056 57 323 3.0 10.0 0.00 0.00 0.00 33 1007.6
20260508190552 57 273 2.0 8.0 0.00 0.00 0.00 35 1007.7
20260508190055 56 296 1.0 7.0 0.00 0.00 0.00 34 1007.6
20260508185553 56 296 1.0 7.0 0.00 0.00 0.00 34 1007.6
20260508185048 57 287 2.0 11.0 0.00 0.00 0.00 33 1007.7
20260508184601 58 231 2.0 12.0 0.00 0.00 0.00 32 1007.7
20260508184049 58 316 4.0 12.0 0.00 0.00 0.00 34 1007.6
20260508183548 57 13 4.0 12.0 0.00 0.00 0.00 35 1007.8
20260508183053 55 322 2.0 12.0 0.00 0.00 0.00 36 1007.9
20260508182549 55 329 2.0 12.0 0.00 0.00 0.00 36 1007.9
20260508182051 56 297 3.0 9.0 0.00 0.00 0.00 36 1007.9
20260508181558 56 332 4.0 13.0 0.00 0.00 0.00 34 1007.9
20260508181051 56 336 5.0 13.0 0.00 0.00 0.00 34 1008.0
20260508180551 57 300 3.0 11.0 0.00 0.00 0.00 34 1007.9
20260508180056 57 0 2.0 11.0 0.00 0.00 0.00 35 1007.9
20260508175548 56 350 0.0 7.0 0.00 0.00 0.00 37 1008.0
20260508175049 56 0 1.0 7.0 0.00 0.00 0.00 38 1008.1
20260508174600 56 0 2.0 10.0 0.00 0.00 0.00 38 1008.0
20260508174048 56 282 2.0 15.0 0.00 0.00 0.00 38 1008.1
20260508173549 56 292 2.0 15.0 0.00 0.00 0.00 37 1008.1
20260508173054 55 348 2.0 15.0 0.00 0.00 0.00 38 1008.2
20260508172548 55 331 2.0 11.0 0.00 0.00 0.00 39 1008.2
20260508172049 55 0 3.0 8.0 0.00 0.00 0.00 39 1008.1
20260508171555 56 294 2.0 10.0 0.00 0.00 0.00 38 1008.3
20260508171047 55 288 1.0 10.0 0.00 0.00 0.00 40 1008.3
20260508170548 55 0 1.0 9.0 0.00 0.00 0.00 38 1008.4
20260508170054 55 355 2.0 12.0 0.00 0.00 0.00 38 1008.5
20260508165547 56 280 3.0 12.0 0.00 0.00 0.00 38 1008.4
20260508165048 56 309 2.0 12.0 0.00 0.00 0.00 38 1008.4
20260508164556 55 0 2.0 9.0 0.00 0.00 0.00 39 1008.5
20260508164051 55 0 2.0 14.0 0.00 0.00 0.00 39 1008.5
20260508163549 56 355 6.0 14.0 0.00 0.00 0.00 38 1008.6
20260508163053 56 330 3.0 10.0 0.00 0.00 0.00 37 1008.5
20260508162552 57 281 3.0 10.0 0.00 0.00 0.00 36 1008.5
20260508162051 57 27 3.0 10.0 0.00 0.00 0.00 37 1008.5
20260508161558 55 290 1.0 10.0 0.00 0.00 0.00 39 1008.5
20260508161050 56 296 1.0 10.0 0.00 0.00 0.00 39 1008.6
20260508160548 55 314 4.0 14.0 0.00 0.00 0.00 40 1008.6
20260508160055 54 283 3.0 14.0 0.00 0.00 0.00 41 1008.6
20260508155548 55 303 3.0 14.0 0.00 0.00 0.00 40 1008.7
20260508155051 55 308 2.0 11.0 0.00 0.00 0.00 41 1008.7
20260508154609 55 360 4.0 11.0 0.00 0.00 0.00 40 1008.8
20260508154048 55 343 3.0 10.0 0.00 0.00 0.00 42 1008.8
20260508153552 54 280 1.0 10.0 0.00 0.00 0.00 45 1008.8
20260508153053 54 289 3.0 10.0 0.00 0.00 0.00 43 1008.9
20260508152552 54 0 2.0 11.0 0.00 0.00 0.00 43 1008.9
20260508152048 55 5 3.0 11.0 0.00 0.00 0.00 43 1009.0
20260508151556 55 312 3.0 9.0 0.00 0.00 0.00 45 1008.9
20260508151049 53 294 1.0 9.0 0.00 0.00 0.00 44 1008.9
20260508150551 54 14 4.0 10.0 0.00 0.00 0.00 44 1009.0
20260508150107 54 325 4.0 10.0 0.00 0.00 0.00 44 1009.0
20260508145551 54 279 4.0 10.0 0.00 0.00 0.00 44 1009.0
20260508145048 55 0 2.0 7.0 0.00 0.00 0.00 45 1009.0
20260508144552 54 14 1.0 9.0 0.00 0.00 0.00 47 1009.0
20260508144048 53 327 1.0 9.0 0.00 0.00 0.00 47 1009.1
20260508143548 52 316 1.0 10.0 0.00 0.00 0.00 49 1009.1
20260508143106 51 295 1.0 10.0 0.00 0.00 0.00 49 1009.0
20260508142551 52 293 2.0 10.0 0.00 0.00 0.00 49 1009.1
20260508142051 52 355 3.0 12.0 0.00 0.00 0.00 48 1009.1
20260508141553 51 340 3.0 12.0 0.00 0.00 0.00 49 1009.1
20260508141052 51 5 3.0 11.0 0.00 0.00 0.00 51 1009.1
20260508140551 50 348 1.0 9.0 0.00 0.00 0.00 53 1009.0
20260508140106 49 288 0.0 8.0 0.00 0.00 0.00 54 1009.0
20260508135551 49 312 2.0 9.0 0.00 0.00 0.00 54 1008.9
20260508135052 49 301 2.0 9.0 0.00 0.00 0.00 54 1009.0
20260508134556 49 338 2.0 11.0 0.00 0.00 0.00 55 1009.0
20260508134048 49 355 1.0 11.0 0.00 0.00 0.00 55 1009.1
20260508133548 49 24 3.0 9.0 0.00 0.00 0.00 55 1009.1
20260508133106 48 349 2.0 8.0 0.00 0.00 0.00 55 1009.0
20260508132549 48 321 2.0 8.0 0.00 0.00 0.00 57 1009.1
20260508132048 48 286 2.0 8.0 0.00 0.00 0.00 58 1009.1
20260508131601 48 271 1.0 6.0 0.00 0.00 0.00 58 1009.1
20260508131048 47 0 1.0 6.0 0.00 0.00 0.00 59 1009.0
20260508130550 47 0 0.0 8.0 0.00 0.00 0.00 60 1009.1
20260508130054 46 342 1.0 8.0 0.00 0.00 0.00 60 1009.2
20260508125548 46 332 1.0 8.0 0.00 0.00 0.00 60 1009.2
20260508125051 46 302 3.0 8.0 0.00 0.00 0.00 61 1009.2
20260508124555 46 333 1.0 6.0 0.00 0.00 0.00 61 1009.2
20260508124048 46 360 1.0 8.0 0.00 0.00 0.00 62 1009.3
20260508123610 46 325 2.0 8.0 0.00 0.00 0.00 62 1009.3
20260508123059 45 327 1.0 8.0 0.00 0.00 0.00 62 1009.2
20260508122553 45 0 2.0 8.0 0.00 0.00 0.00 62 1009.2
20260508122054 45 340 3.0 10.0 0.00 0.00 0.00 62 1009.2
20260508121602 45 309 2.0 10.0 0.00 0.00 0.00 62 1009.1
20260508121053 45 331 3.0 10.0 0.00 0.00 0.00 62 1009.1
20260508120551 45 0 3.0 10.0 0.00 0.00 0.00 62 1009.1
20260508115552 44 299 1.0 6.0 0.00 0.00 0.00 63 1009.1
20260508115052 44 323 2.0 10.0 0.00 0.00 0.00 63 1009.1
20260508114557 44 0 1.0 10.0 0.00 0.00 0.00 63 1009.1
20260508114051 44 317 3.0 10.0 0.00 0.00 0.00 63 1009.1
20260508113554 44 320 1.0 6.0 0.00 0.00 0.00 63 1009.1
20260508113056 44 304 2.0 6.0 0.00 0.00 0.00 63 1009.1
20260508112551 44 24 2.0 10.0 0.00 0.00 0.00 63 1009.0
20260508112054 44 0 2.0 10.0 0.00 0.00 0.00 63 1009.0
20260508111603 44 0 0.0 5.0 0.00 0.00 0.00 63 1009.0
20260508111051 44 315 1.0 5.0 0.00 0.00 0.00 63 1009.0
20260508110555 44 0 1.0 5.0 0.00 0.00 0.00 63 1008.9
20260508110056 44 0 1.0 7.0 0.00 0.00 0.00 63 1009.0
20260508105553 44 312 0.0 7.0 0.00 0.00 0.00 63 1008.9
20260508105053 44 319 1.0 6.0 0.00 0.00 0.00 63 1008.8
20260508104551 44 334 2.0 6.0 0.00 0.00 0.00 63 1008.8
20260508104054 43 315 1.0 7.0 0.00 0.00 0.00 63 1008.8
20260508103552 43 0 0.0 7.0 0.00 0.00 0.00 62 1008.8
20260508103054 43 287 0.0 5.0 0.00 0.00 0.00 63 1008.7
20260508102551 43 0 0.0 5.0 0.00 0.00 0.00 62 1008.7
20260508102052 43 0 1.0 5.0 0.00 0.00 0.00 63 1008.6
20260508101554 44 303 1.0 5.0 0.00 0.00 0.00 63 1008.6
20260508101052 43 0 0.0 8.0 0.00 0.00 0.00 63 1008.5
20260508100551 43 303 0.0 8.0 0.00 0.00 0.00 62 1008.5
20260508100054 44 0 1.0 7.0 0.00 0.00 0.00 62 1008.6
20260508095555 44 292 0.0 6.0 0.00 0.00 0.00 62 1008.5
20260508095052 44 306 0.0 6.0 0.00 0.00 0.00 62 1008.4
20260508094555 44 330 0.0 6.0 0.00 0.00 0.00 62 1008.3
20260508094051 44 0 0.0 6.0 0.00 0.00 0.00 61 1008.3
20260508093552 44 329 0.0 8.0 0.00 0.00 0.00 61 1008.3
20260508093126 44 313 3.0 9.0 0.00 0.00 0.00 61 1008.3
20260508092548 44 327 1.0 9.0 0.00 0.00 0.00 61 1008.3
20260508092049 44 310 3.0 9.0 0.00 0.00 0.00 61 1008.3
20260508091601 44 290 1.0 7.0 0.00 0.00 0.00 61 1008.3
20260508091048 44 0 1.0 6.0 0.00 0.00 0.00 61 1008.3
20260508090551 44 346 1.0 9.0 0.00 0.00 0.00 61 1008.3
20260508090055 44 5 3.0 9.0 0.00 0.00 0.00 60 1008.2
20260508085552 44 311 0.0 9.0 0.00 0.00 0.00 60 1008.2
20260508085051 44 327 2.0 9.0 0.00 0.00 0.00 60 1008.2
20260508084603 44 343 2.0 10.0 0.00 0.00 0.00 60 1008.2
20260508084052 44 316 1.0 10.0 0.00 0.00 0.00 60 1008.2
20260508083552 44 282 1.0 9.0 0.00 0.00 0.00 59 1008.2
20260508083103 44 0 1.0 9.0 0.00 0.00 0.00 59 1008.2
20260508082551 44 327 2.0 9.0 0.00 0.00 0.00 59 1008.2
20260508082051 44 335 2.0 8.0 0.00 0.00 0.00 59 1008.2
20260508081551 44 309 1.0 9.0 0.00 0.00 0.00 59 1008.2
20260508081051 44 284 2.0 9.0 0.00 0.00 0.00 59 1008.2
20260508080549 44 0 3.0 9.0 0.00 0.00 0.00 59 1008.1
20260508080106 44 303 2.0 9.0 0.00 0.00 0.00 59 1008.1
20260508075551 44 352 2.0 8.0 0.00 0.00 0.00 59 1008.1
20260508075051 44 0 1.0 5.0 0.00 0.00 0.00 60 1008.1
20260508074554 44 288 2.0 5.0 0.00 0.00 0.00 60 1008.0
20260508074048 44 288 0.0 6.0 0.00 0.00 0.00 59 1008.1
20260508073554 44 0 1.0 7.0 0.00 0.00 0.00 59 1008.1
20260508073056 44 290 2.0 7.0 0.00 0.00 0.00 59 1008.0
20260508072547 45 329 2.0 9.0 0.00 0.00 0.00 58 1008.0
20260508072052 45 332 2.0 9.0 0.00 0.00 0.00 58 1008.0
20260508071553 45 0 2.0 9.0 0.00 0.00 0.00 58 1007.9
20260508071051 45 5 1.0 8.0 0.00 0.00 0.00 58 1008.0
20260508070553 45 321 1.0 6.0 0.00 0.00 0.00 58 1008.0
20260508070058 45 0 1.0 6.0 0.00 0.00 0.00 58 1007.9
20260508065552 45 0 1.0 9.0 0.00 0.00 0.00 57 1008.0
20260508065053 45 331 3.0 9.0 0.00 0.00 0.00 57 1007.9
20260508064557 45 296 1.0 6.0 0.00 0.00 0.00 57 1007.9
20260508064048 45 309 1.0 6.0 0.00 0.00 0.00 57 1007.8
20260508063548 45 329 1.0 6.0 0.00 0.00 0.00 57 1007.8
20260508063054 45 318 1.0 10.0 0.00 0.00 0.00 57 1007.9
20260508062551 45 0 2.0 10.0 0.00 0.00 0.00 57 1007.9
20260508062048 45 0 2.0 10.0 0.00 0.00 0.00 57 1007.9
20260508061552 45 302 1.0 9.0 0.00 0.00 0.00 57 1007.9
20260508061051 45 297 2.0 9.0 0.00 0.00 0.00 57 1008.0
20260508060550 45 304 0.0 6.0 0.00 0.00 0.00 58 1008.0
20260508060052 45 321 0.0 9.0 0.00 0.00 0.00 58 1008.0
20260508055551 45 344 1.0 9.0 0.00 0.00 0.00 58 1008.0
20260508055051 45 345 0.0 8.0 0.00 0.00 0.00 58 1008.1
20260508054556 45 304 1.0 9.0 0.00 0.00 0.00 57 1008.0
20260508054051 45 0 2.0 9.0 0.00 0.00 0.00 57 1008.0
20260508053550 45 0 2.0 6.0 0.00 0.00 0.00 57 1008.0
20260508053055 45 319 1.0 6.0 0.00 0.00 0.00 57 1008.0
20260508052553 45 335 0.0 5.0 0.00 0.00 0.00 57 1008.0
20260508052051 45 0 1.0 5.0 0.00 0.00 0.00 57 1008.0
20260508051608 45 337 1.0 4.0 0.00 0.00 0.00 56 1008.1
20260508051053 45 327 1.0 6.0 0.00 0.00 0.00 56 1008.0
20260508050548 45 0 0.0 6.0 0.00 0.00 0.00 55 1008.0
20260508050103 45 328 1.0 5.0 0.00 0.00 0.00 55 1008.1
20260508045550 45 0 0.0 6.0 0.00 0.00 0.00 55 1008.0
20260508045050 45 338 1.0 6.0 0.00 0.00 0.00 56 1008.1
20260508044555 45 333 0.0 5.0 0.00 0.00 0.00 56 1008.1
20260508044051 45 0 1.0 5.0 0.00 0.00 0.00 55 1008.1
20260508043551 45 0 0.0 5.0 0.00 0.00 0.00 55 1008.1
20260508043052 45 310 0.0 6.0 0.00 0.00 0.00 55 1008.0
20260508042548 46 310 0.0 6.0 0.00 0.00 0.00 55 1008.0
20260508042051 46 336 1.0 6.0 0.00 0.00 0.00 54 1008.0
20260508041601 46 339 1.0 5.0 0.00 0.00 0.00 54 1008.0
20260508041048 46 312 1.0 6.0 0.00 0.00 0.00 54 1008.0
20260508040552 46 314 2.0 9.0 0.00 0.00 0.00 54 1008.0
20260508040059 46 316 2.0 9.0 0.00 0.00 0.00 54 1007.9
20260508035554 46 317 1.0 6.0 0.00 0.00 0.00 53 1007.9
20260508035051 46 0 1.0 6.0 0.00 0.00 0.00 52 1007.9
20260508034552 46 317 1.0 5.0 0.00 0.00 0.00 52 1008.0
20260508034051 46 317 0.0 5.0 0.00 0.00 0.00 51 1008.0
20260508033553 46 317 1.0 4.0 0.00 0.00 0.00 51 1008.0
20260508033052 47 325 0.0 4.0 0.00 0.00 0.00 51 1007.9
20260508032552 47 0 0.0 4.0 0.00 0.00 0.00 51 1008.0
20260508032051 47 323 1.0 4.0 0.00 0.00 0.00 51 1008.0
20260508031555 47 323 0.0 4.0 0.00 0.00 0.00 51 1007.9
20260508031053 47 323 0.0 4.0 0.00 0.00 0.00 51 1007.9
20260508030551 47 323 0.0 3.0 0.00 0.00 0.00 50 1007.9
20260508030057 47 0 0.0 4.0 0.00 0.00 0.00 50 1007.9
20260508025552 47 0 1.0 4.0 0.00 0.00 0.00 50 1008.0
20260508025051 48 0 0.0 3.0 0.00 0.00 0.00 50 1008.0
20260508024552 48 323 0.0 4.0 0.00 0.00 0.00 49 1008.0
20260508024053 48 0 1.0 4.0 0.00 0.00 0.00 49 1007.9
20260508023554 48 0 0.0 4.0 0.00 0.00 0.00 49 1008.0
20260508023053 48 0 1.0 4.0 0.00 0.00 0.00 49 1008.0
20260508022551 48 0 0.0 5.0 0.00 0.00 0.00 49 1008.0
20260508022054 48 323 1.0 5.0 0.00 0.00 0.00 48 1008.0
20260508021554 48 323 0.0 5.0 0.00 0.00 0.00 48 1007.9
20260508021050 49 0 1.0 6.0 0.00 0.00 0.00 48 1007.9
20260508020551 49 319 0.0 6.0 0.00 0.00 0.00 48 1007.9
20260508020057 49 0 1.0 6.0 0.00 0.00 0.00 47 1007.9
20260508015551 49 0 2.0 6.0 0.00 0.00 0.00 46 1007.9
20260508015051 49 0 0.0 6.0 0.00 0.00 0.00 46 1007.9
20260508014555 49 315 0.0 5.0 0.00 0.00 0.00 46 1007.8
20260508014051 49 315 1.0 5.0 0.00 0.00 0.00 46 1007.8
20260508013552 50 355 1.0 4.0 0.00 0.00 0.00 46 1007.8
20260508013053 50 336 1.0 4.0 0.00 0.00 0.00 45 1007.8
20260508012554 50 344 0.0 4.0 0.00 0.00 0.00 45 1007.8
20260508012055 50 0 0.0 8.0 0.00 0.00 0.00 45 1007.7
20260508011608 50 336 1.0 8.0 0.00 0.00 0.00 45 1007.7
20260508011053 50 345 1.0 8.0 0.00 0.00 0.00 44 1007.7
20260508010551 50 344 1.0 8.0 0.00 0.00 0.00 45 1007.6
20260508010055 51 330 2.0 9.0 0.00 0.00 0.00 44 1007.6
20260508005550 51 0 2.0 9.0 0.00 0.00 0.00 44 1007.5
20260508005051 51 350 2.0 9.0 0.00 0.00 0.00 44 1007.4
20260508004554 51 5 1.0 6.0 0.00 0.00 0.00 44 1007.3
20260508004051 51 323 0.0 4.0 0.00 0.00 0.00 44 1007.3
20260508003556 51 352 1.0 5.0 0.00 0.00 0.00 44 1007.2
20260508003059 51 327 1.0 6.0 0.00 0.00 0.00 44 1007.2
20260508002551 51 5 2.0 8.0 0.00 0.00 0.00 43 1007.1
20260508002052 51 0 1.0 8.0 0.00 0.00 0.00 43 1007.1
20260508001551 52 0 2.0 6.0 0.00 0.00 0.00 43 1007.1
20260508001052 52 332 1.0 6.0 0.00 0.00 0.00 42 1007.0
20260508000553 52 315 1.0 8.0 0.00 0.00 0.00 42 1007.0
20260508000058 52 310 2.0 11.0 0.00 0.00 0.00 41 1007.0
20260507235550 52 327 4.0 11.0 0.00 0.00 0.00 41 1006.9
20260507235051 52 331 2.0 9.0 0.00 0.00 0.00 41 1007.0
20260507234556 52 304 1.0 11.0 0.00 0.00 0.00 41 1006.9
20260507234053 52 312 2.0 11.0 0.00 0.00 0.00 41 1007.0
20260507233548 53 5 2.0 11.0 0.00 0.00 0.00 40 1006.9
20260507233113 53 344 1.0 9.0 0.00 0.00 0.00 41 1006.9
20260507232552 53 309 1.0 10.0 0.00 0.00 0.00 40 1006.9
20260507232054 53 329 2.0 12.0 0.00 0.00 0.00 40 1006.9
20260507231552 53 5 2.0 12.0 0.00 0.00 0.00 40 1006.9
20260507231051 53 26 4.0 12.0 0.00 0.00 0.00 39 1006.8
20260507230551 53 328 3.0 12.0 0.00 0.00 0.00 39 1006.8
20260507230052 54 327 3.0 11.0 0.00 0.00 0.00 38 1006.8
20260507225551 54 5 2.0 12.0 0.00 0.00 0.00 39 1006.8
20260507225051 54 0 4.0 12.0 0.00 0.00 0.00 38 1006.8
20260507224553 53 284 2.0 10.0 0.00 0.00 0.00 38 1006.7
20260507224050 53 355 3.0 10.0 0.00 0.00 0.00 38 1006.8
20260507223553 53 309 3.0 11.0 0.00 0.00 0.00 38 1006.8
20260507223105 54 332 3.0 13.0 0.00 0.00 0.00 38 1006.8
20260507222548 54 334 5.0 13.0 0.00 0.00 0.00 37 1006.8
20260507222051 54 0 3.0 11.0 0.00 0.00 0.00 37 1006.8
20260507221556 54 326 5.0 11.0 0.00 0.00 0.00 38 1006.7
20260507221052 54 321 1.0 11.0 0.00 0.00 0.00 38 1006.8
20260507220551 54 0 3.0 12.0 0.00 0.00 0.00 38 1006.8
20260507220057 54 331 4.0 12.0 0.00 0.00 0.00 38 1006.8
20260507215551 54 277 5.0 12.0 0.00 0.00 0.00 38 1006.8
20260507215052 54 337 2.0 9.0 0.00 0.00 0.00 37 1006.8
20260507214555 54 329 3.0 10.0 0.00 0.00 0.00 37 1006.8
20260507214050 54 304 1.0 11.0 0.00 0.00 0.00 37 1006.8
20260507213553 55 335 3.0 11.0 0.00 0.00 0.00 37 1006.8
20260507213052 55 290 2.0 9.0 0.00 0.00 0.00 37 1006.8
20260507212548 55 0 2.0 10.0 0.00 0.00 0.00 36 1006.8
20260507212127 55 289 3.0 12.0 0.00 0.00 0.00 36 1006.7
20260507211601 55 321 3.0 12.0 0.00 0.00 0.00 36 1006.7
20260507211051 55 319 2.0 13.0 0.00 0.00 0.00 36 1006.6
20260507210551 55 309 3.0 13.0 0.00 0.00 0.00 37 1006.6
20260507210111 55 336 4.0 14.0 0.00 0.00 0.00 36 1006.7
20260507205552 55 352 5.0 14.0 0.00 0.00 0.00 35 1006.7
20260507205049 56 344 5.0 14.0 0.00 0.00 0.00 35 1006.7
20260507204554 56 323 4.0 14.0 0.00 0.00 0.00 36 1006.7
20260507204049 55 308 3.0 12.0 0.00 0.00 0.00 37 1006.6
20260507203552 56 321 4.0 12.0 0.00 0.00 0.00 36 1006.6
20260507203053 56 336 3.0 14.0 0.00 0.00 0.00 36 1006.7
20260507202554 57 265 3.0 14.0 0.00 0.00 0.00 35 1006.7
20260507202050 57 327 4.0 15.0 0.00 0.00 0.00 34 1006.7
20260507201555 57 348 4.0 15.0 0.00 0.00 0.00 34 1006.7
20260507201050 57 345 4.0 12.0 0.00 0.00 0.00 34 1006.7
20260507200555 57 347 1.0 11.0 0.00 0.00 0.00 35 1006.7